Weather History for Moab, UT

Change the Weather History Date:

Tuesday, November 12, 2013

  Actual Average Record
Temperature  
Mean Temperature 45 °F 40 °F  
Max Temperature 62 °F 52 °F 75 °F (1989)
Min Temperature 28 °F 28 °F 12 °F (2012)
Degree Days  
Heating Degree Days 20 25  
Month to date heating degree days 276 264  
Since 1 July heating degree days 744 683  
Cooling Degree Days 0 0  
Month to date cooling degree days 0 0  
Year to date cooling degree days 1643 1289  
Moisture  
Dew Point 21 °F    
Average Humidity 41    
Maximum Humidity 58    
Minimum Humidity 23    
Precipitation  
Precipitation 0.00 in 0.02 in 0.42 in (1978)
Month to date precipitation 0.00 0.28  
Year to date precipitation 5.52 7.79  
Sea Level Pressure  
Sea Level Pressure 30.45 in    
Wind  
Wind Speed 2 mph (NW)    
Max Wind Speed 12 mph    
Max Gust Speed 14 mph    
Visibility 10 miles    
Events      
T = Trace of Precipitation, MM = Missing Value Source: NWS Daily Summary

Daily Weather History Graph

Daily Weather History Graph

Search for Another Location

Airport:

Trip Planner

Search our weather history database for the weather conditions in past years. The results will help you decide how hot, cold, wet, or windy it might be!

Date:

Astronomy

Nov. 12, 2013 Rise Set
Actual Time 6:58 AM MST 5:07 PM MST
Civil Twilight 6:30 AM MST 5:35 PM MST
Nautical Twilight 5:58 AM MST 6:07 PM MST
Astronomical Twilight 5:26 AM MST 6:39 PM MST
Moon 2:21 PM MST (11/12) 1:54 AM MST (11/12)
Length of Visible Light 11h 05m
Length of Day
10h 09m
Waxing Gibbous, 77% of the Moon is Illuminated
Nov 12
Waxing Gibbous
Nov 17
Full
Nov 25
Last Quarter
Dec 2
New
Dec 9
First Quarter

Hourly Weather History & Observations

Time (MST) Temp. Windchill Dew Point Humidity Pressure Visibility Wind Dir Wind Speed Gust Speed Precip Events Conditions
12:53 AM 33.1 °F 30.0 °F 17.1 °F 52% 30.41 in 10.0 mi ENE 3.5 mph - N/A   Clear
1:53 AM 33.1 °F 30.0 °F 19.0 °F 56% 30.42 in 10.0 mi WSW 3.5 mph - N/A   Clear
2:53 AM 30.9 °F - 18.0 °F 59% 30.43 in 10.0 mi Calm Calm - N/A   Clear
3:53 AM 30.0 °F - 17.1 °F 59% 30.45 in 10.0 mi Calm Calm - N/A   Clear
4:53 AM 30.0 °F - 18.0 °F 61% 30.47 in 10.0 mi Calm Calm - N/A   Clear
5:53 AM 36.0 °F - 21.9 °F 57% 30.48 in 10.0 mi Calm Calm - N/A   Clear
6:53 AM 33.1 °F - 19.9 °F 59% 30.53 in 10.0 mi Calm Calm - N/A   Clear
7:53 AM 34.0 °F - 19.9 °F 56% 30.56 in 10.0 mi Calm Calm - N/A   Clear
8:53 AM 44.1 °F - 24.1 °F 45% 30.54 in 10.0 mi Calm Calm - N/A   Clear
9:53 AM 48.9 °F - 24.1 °F 38% 30.53 in 10.0 mi Calm Calm - N/A   Clear
10:53 AM 54.0 °F - 24.1 °F 31% 30.52 in 10.0 mi NNE 10.4 mph - N/A   Clear
11:53 AM 54.0 °F - 24.1 °F 31% 30.49 in 10.0 mi NW 4.6 mph - N/A   Clear
12:53 PM 57.0 °F - 24.1 °F 28% 30.46 in 10.0 mi Calm Calm - N/A   Clear
1:53 PM 61.0 °F - 24.1 °F 24% 30.43 in 10.0 mi North 3.5 mph - N/A   Clear
2:53 PM 60.1 °F - 23.0 °F 24% 30.42 in 10.0 mi NNW 3.5 mph - N/A   Clear
3:53 PM 60.1 °F - 24.1 °F 25% 30.40 in 10.0 mi Calm Calm - N/A   Clear
4:53 PM 55.9 °F - 23.0 °F 28% 30.41 in 10.0 mi NW 5.8 mph - N/A   Clear
5:53 PM 50.0 °F - 21.9 °F 33% 30.41 in 10.0 mi NW 5.8 mph - N/A   Clear
6:53 PM 42.1 °F - 19.0 °F 40% 30.45 in 10.0 mi Calm Calm - N/A   Clear
7:53 PM 42.1 °F - 21.0 °F 43% 30.44 in 10.0 mi Calm Calm - N/A   Clear
8:53 PM 39.0 °F 36.8 °F 19.9 °F 46% 30.42 in 10.0 mi WSW 3.5 mph - N/A   Clear
9:53 PM 39.0 °F - 19.9 °F 46% 30.42 in 10.0 mi Calm Calm - N/A   Clear
10:53 PM 35.1 °F - 19.0 °F 52% 30.41 in 10.0 mi Calm Calm - N/A   Clear
11:53 PM 32.0 °F - 16.0 °F 52% 30.41 in 10.0 mi Calm Calm - N/A   Clear